Time,TemperatureF,DewpointF,PressureIn,WindDirection,WindDirectionDegrees,WindSpeedMPH,WindSpeedGustMPH,Humidity,HourlyPrecipIn,Conditions,Clouds,dailyrainin,SoftwareType,DateUTC
2013-09-10 00:02:00,67.3,59.8,29.70,West,273,0.0,0.0,77,0.00,CLR,,0.00,WeatherDisplay:10.37,2013-09-09 14:02:00,
2013-09-10 00:07:00,67.3,59.5,29.70,West,270,0.0,0.0,76,0.00,CLR,,0.00,WeatherDisplay:10.37,2013-09-09 14:07:00,
2013-09-10 00:12:00,67.3,59.5,29.70,WNW,283,0.0,0.0,76,0.00,CLR,,0.00,WeatherDisplay:10.37,2013-09-09 14:12:00,
2013-09-10 00:17:00,67.3,59.5,29.69,West,273,0.0,0.0,76,0.00,CLR,,0.00,WeatherDisplay:10.37,2013-09-09 14:17:00,
2013-09-10 00:22:00,67.3,59.5,29.70,West,263,0.0,0.0,76,0.00,CLR,,0.00,WeatherDisplay:10.37,2013-09-09 14:22:00,
2013-09-10 00:27:00,67.3,59.1,29.70,West,270,0.0,0.0,75,0.00,CLR,,0.00,WeatherDisplay:10.37,2013-09-09 14:27:00,
2013-09-10 00:32:00,67.3,59.1,29.70,West,269,0.0,0.0,75,0.00,CLR,,0.00,WeatherDisplay:10.37,2013-09-09 14:32:00,
2013-09-10 00:37:00,67.3,59.1,29.69,West,270,0.0,0.0,75,0.00,CLR,,0.00,WeatherDisplay:10.37,2013-09-09 14:37:00,
2013-09-10 00:42:00,67.3,59.1,29.69,WNW,282,0.0,0.0,75,0.00,CLR,,0.00,WeatherDisplay:10.37,2013-09-09 14:42:00,
2013-09-10 00:47:00,67.3,58.7,29.69,West,277,0.0,0.0,74,0.00,CLR,,0.00,WeatherDisplay:10.37,2013-09-09 14:47:00,
2013-09-10 00:52:00,67.3,58.3,29.69,West,263,0.0,0.0,73,0.00,CLR,,0.00,WeatherDisplay:10.37,2013-09-09 14:52:00,
2013-09-10 00:57:00,67.3,58.3,29.69,West,261,0.0,0.0,73,0.00,CLR,,0.00,WeatherDisplay:10.37,2013-09-09 14:57:00,
2013-09-10 01:02:00,67.3,57.9,29.69,West,271,0.0,0.0,72,0.00,CLR,,0.00,WeatherDisplay:10.37,2013-09-09 15:02:00,
2013-09-10 01:07:00,67.3,57.9,29.69,West,272,0.0,0.0,72,0.00,CLR,,0.00,WeatherDisplay:10.37,2013-09-09 15:07:00,
2013-09-10 01:12:00,67.3,57.9,29.69,West,267,0.0,0.0,72,0.00,CLR,,0.00,WeatherDisplay:10.37,2013-09-09 15:12:00,
2013-09-10 01:17:00,67.3,57.9,29.68,West,269,0.0,0.0,72,0.00,CLR,,0.00,WeatherDisplay:10.37,2013-09-09 15:17:00,
2013-09-10 01:22:00,67.3,57.6,29.68,West,271,0.0,0.0,71,0.00,CLR,,0.00,WeatherDisplay:10.37,2013-09-09 15:22:00,
2013-09-10 01:27:00,67.3,57.6,29.68,West,275,0.0,0.0,71,0.00,CLR,,0.00,WeatherDisplay:10.37,2013-09-09 15:27:00,
2013-09-10 01:37:00,67.1,57.0,29.68,WNW,285,0.0,0.0,70,0.00,CLR,,0.00,WeatherDisplay:10.37,2013-09-09 15:37:00,
2013-09-10 01:42:00,67.1,57.0,29.68,West,273,0.0,0.0,70,0.00,CLR,,0.00,WeatherDisplay:10.37,2013-09-09 15:42:00,
2013-09-10 01:47:00,67.1,57.0,29.67,West,263,0.0,0.0,70,0.00,CLR,,0.00,WeatherDisplay:10.37,2013-09-09 15:47:00,
2013-09-10 01:52:00,67.1,57.0,29.67,West,261,0.0,0.0,70,0.00,CLR,,0.00,WeatherDisplay:10.37,2013-09-09 15:52:00,
2013-09-10 01:57:00,67.1,57.0,29.67,West,272,0.0,0.0,70,0.00,CLR,,0.00,WeatherDisplay:10.37,2013-09-09 15:57:00,
2013-09-10 02:02:00,67.0,56.9,29.67,WNW,283,0.0,0.0,70,0.00,CLR,,0.00,WeatherDisplay:10.37,2013-09-09 16:02:00,
2013-09-10 02:07:00,66.9,57.2,29.67,West,273,0.0,0.0,71,0.00,CLR,,0.00,WeatherDisplay:10.37,2013-09-09 16:07:00,
2013-09-10 02:12:00,66.9,57.2,29.67,West,271,0.0,0.0,71,0.00,CLR,,0.00,WeatherDisplay:10.37,2013-09-09 16:12:00,
2013-09-10 02:17:00,66.8,57.1,29.66,West,275,0.0,0.0,71,0.00,CLR,,0.00,WeatherDisplay:10.37,2013-09-09 16:17:00,
2013-09-10 02:22:00,66.7,57.0,29.66,WNW,282,0.0,0.0,71,0.00,CLR,,0.00,WeatherDisplay:10.37,2013-09-09 16:22:00,
2013-09-10 02:27:00,66.7,57.0,29.66,West,280,0.0,0.0,71,0.00,CLR,,0.00,WeatherDisplay:10.37,2013-09-09 16:27:00,
2013-09-10 02:32:00,66.7,57.0,29.65,West,271,0.0,0.0,71,0.00,CLR,,0.00,WeatherDisplay:10.37,2013-09-09 16:32:00,
2013-09-10 02:37:00,66.6,56.9,29.65,West,276,0.0,0.0,71,0.00,CLR,,0.00,WeatherDisplay:10.37,2013-09-09 16:37:00,
2013-09-10 02:42:00,66.6,56.9,29.65,WNW,289,0.0,0.0,71,0.00,CLR,,0.00,WeatherDisplay:10.37,2013-09-09 16:42:00,
2013-09-10 02:47:00,66.6,56.9,29.65,WNW,288,0.0,0.0,71,0.00,CLR,,0.00,WeatherDisplay:10.37,2013-09-09 16:47:00,
2013-09-10 02:52:00,66.6,56.9,29.65,West,278,0.0,0.0,71,0.00,CLR,,0.00,WeatherDisplay:10.37,2013-09-09 16:52:00,
2013-09-10 02:57:00,66.4,56.3,29.65,West,275,0.0,0.0,70,0.00,CLR,,0.00,WeatherDisplay:10.37,2013-09-09 16:57:00,
2013-09-10 03:02:00,66.4,56.3,29.65,West,267,0.0,0.0,70,0.00,CLR,,0.00,WeatherDisplay:10.37,2013-09-09 17:02:00,
2013-09-10 03:07:00,66.4,56.3,29.65,West,274,0.0,0.0,70,0.00,CLR,,0.00,WeatherDisplay:10.37,2013-09-09 17:07:00,
2013-09-10 03:12:00,66.2,55.7,29.65,West,281,0.0,0.0,69,0.00,CLR,,0.00,WeatherDisplay:10.37,2013-09-09 17:12:00,
2013-09-10 03:17:00,66.2,55.7,29.65,WNW,293,0.0,0.0,69,0.00,CLR,,0.00,WeatherDisplay:10.37,2013-09-09 17:17:00,
2013-09-10 03:27:00,66.0,55.2,29.64,WNW,298,0.0,0.0,68,0.00,CLR,,0.00,WeatherDisplay:10.37,2013-09-09 17:27:00,
2013-09-10 03:32:00,66.0,55.2,29.64,WNW,286,0.0,0.0,68,0.00,CLR,,0.00,WeatherDisplay:10.37,2013-09-09 17:32:00,
2013-09-10 03:37:00,66.0,55.2,29.63,NW,326,0.0,0.0,68,0.00,CLR,,0.00,WeatherDisplay:10.37,2013-09-09 17:37:00,
2013-09-10 03:42:00,66.0,54.7,29.63,North,355,0.0,0.0,67,0.00,CLR,,0.00,WeatherDisplay:10.37,2013-09-09 17:42:00,
2013-09-10 03:47:00,65.8,54.6,29.63,NNW,348,0.0,2.0,67,0.00,CLR,,0.00,WeatherDisplay:10.37,2013-09-09 17:47:00,
2013-09-10 03:52:00,65.8,54.6,29.64,NNW,336,0.0,0.0,67,0.00,CLR,,0.00,WeatherDisplay:10.37,2013-09-09 17:52:00,
2013-09-10 03:57:00,65.8,54.2,29.64,WNW,295,0.0,0.0,66,0.00,CLR,,0.00,WeatherDisplay:10.37,2013-09-09 17:57:00,
2013-09-10 04:02:00,65.7,54.0,29.64,West,273,0.0,0.0,66,0.00,CLR,,0.00,WeatherDisplay:10.37,2013-09-09 18:02:00,
2013-09-10 04:07:00,65.7,54.0,29.64,NW,304,0.0,0.0,66,0.00,CLR,,0.00,WeatherDisplay:10.37,2013-09-09 18:07:00,
2013-09-10 04:12:00,65.6,53.6,29.64,NNW,346,0.0,0.0,65,0.00,CLR,,0.00,WeatherDisplay:10.37,2013-09-09 18:12:00,
2013-09-10 04:17:00,65.6,53.5,29.64,North,353,0.0,0.0,65,0.00,CLR,,0.00,WeatherDisplay:10.37,2013-09-09 18:17:00,
2013-09-10 04:22:00,65.5,53.4,29.64,North,350,0.0,0.0,65,0.00,CLR,,0.00,WeatherDisplay:10.37,2013-09-09 18:22:00,
2013-09-10 04:27:00,65.5,53.8,29.64,NW,310,0.0,0.0,66,0.00,CLR,,0.00,WeatherDisplay:10.37,2013-09-09 18:27:00,
2013-09-10 04:32:00,65.5,53.8,29.64,WNW,295,0.0,0.0,66,0.00,CLR,,0.00,WeatherDisplay:10.37,2013-09-09 18:32:00,
2013-09-10 04:37:00,65.3,53.6,29.64,WNW,288,0.0,0.0,66,0.00,CLR,,0.00,WeatherDisplay:10.37,2013-09-09 18:37:00,
2013-09-10 04:42:00,65.1,53.5,29.64,West,280,0.0,0.0,66,0.00,CLR,,0.00,WeatherDisplay:10.37,2013-09-09 18:42:00,
2013-09-10 04:47:00,65.1,53.5,29.64,WNW,294,0.0,0.0,66,0.00,CLR,,0.00,WeatherDisplay:10.37,2013-09-09 18:47:00,
2013-09-10 04:52:00,64.9,53.3,29.64,WNW,297,0.0,0.0,66,0.00,CLR,,0.00,WeatherDisplay:10.37,2013-09-09 18:52:00,
2013-09-10 04:57:00,64.9,53.3,29.64,NW,304,0.0,0.0,66,0.00,CLR,,0.00,WeatherDisplay:10.37,2013-09-09 18:57:00,
2013-09-10 05:02:00,64.8,52.7,29.64,NNW,333,1.0,2.0,65,0.00,CLR,,0.00,WeatherDisplay:10.37,2013-09-09 19:02:00,
2013-09-10 05:07:00,65.1,51.7,29.64,NNW,337,1.0,4.0,62,0.00,CLR,,0.00,WeatherDisplay:10.37,2013-09-09 19:07:00,
2013-09-10 05:12:00,65.5,51.7,29.63,NNW,331,1.0,4.0,61,0.00,CLR,,0.00,WeatherDisplay:10.37,2013-09-09 19:12:00,
2013-09-10 05:17:00,65.9,51.2,29.63,NNW,328,0.0,4.0,59,0.00,CLR,,0.00,WeatherDisplay:10.37,2013-09-09 19:17:00,
2013-09-10 05:22:00,66.4,51.6,29.63,NW,315,2.0,5.0,59,0.00,CLR,,0.00,WeatherDisplay:10.37,2013-09-09 19:22:00,
2013-09-10 05:27:00,66.7,51.5,29.63,NW,320,1.0,5.0,58,0.00,CLR,,0.00,WeatherDisplay:10.37,2013-09-09 19:27:00,
2013-09-10 05:32:00,66.9,51.2,29.63,NNW,331,0.0,5.0,57,0.00,CLR,,0.00,WeatherDisplay:10.37,2013-09-09 19:32:00,
2013-09-10 05:37:00,67.1,50.9,29.64,NNW,331,0.0,5.0,56,0.00,CLR,,0.00,WeatherDisplay:10.37,2013-09-09 19:37:00,
2013-09-10 05:42:00,67.3,51.0,29.63,NNW,330,2.0,5.0,56,0.00,CLR,,0.00,WeatherDisplay:10.37,2013-09-09 19:42:00,
2013-09-10 05:47:00,67.6,50.8,29.64,NNW,327,1.0,3.0,55,0.00,CLR,,0.00,WeatherDisplay:10.37,2013-09-09 19:47:00,
2013-09-10 05:52:00,67.6,50.9,29.64,NW,322,1.0,3.0,55,0.00,CLR,,0.00,WeatherDisplay:10.37,2013-09-09 19:52:00,
2013-09-10 05:57:00,67.6,50.9,29.64,NW,307,0.0,4.0,55,0.00,CLR,,0.00,WeatherDisplay:10.37,2013-09-09 19:57:00,
2013-09-10 06:02:00,67.6,50.4,29.63,NNW,332,0.0,5.0,54,0.00,CLR,,0.00,WeatherDisplay:10.37,2013-09-09 20:02:00,
2013-09-10 06:07:00,67.8,50.6,29.63,NNW,340,1.0,5.0,54,0.00,CLR,,0.00,WeatherDisplay:10.37,2013-09-09 20:07:00,
2013-09-10 06:12:00,67.7,50.5,29.64,NNW,338,0.0,3.0,54,0.00,CLR,,0.00,WeatherDisplay:10.37,2013-09-09 20:12:00,
2013-09-10 06:17:00,67.6,50.4,29.65,NNW,340,1.0,3.0,54,0.00,CLR,,0.00,WeatherDisplay:10.37,2013-09-09 20:17:00,
2013-09-10 06:22:00,67.6,50.4,29.64,NW,315,0.0,4.0,54,0.00,CLR,,0.00,WeatherDisplay:10.37,2013-09-09 20:22:00,
2013-09-10 06:27:00,67.6,50.4,29.64,NW,315,1.0,2.0,54,0.00,CLR,,0.00,WeatherDisplay:10.37,2013-09-09 20:27:00,
2013-09-10 06:37:00,67.5,50.3,29.65,NW,314,0.0,2.0,54,0.00,CLR,,0.00,WeatherDisplay:10.37,2013-09-09 20:37:00,
2013-09-10 06:42:00,67.4,50.1,29.65,NW,316,0.0,2.0,54,0.00,CLR,,0.00,WeatherDisplay:10.37,2013-09-09 20:42:00,
2013-09-10 06:47:00,67.3,50.6,29.65,NW,323,0.0,2.0,55,0.00,CLR,,0.00,WeatherDisplay:10.37,2013-09-09 20:47:00,
2013-09-10 06:52:00,67.3,50.6,29.65,NW,322,0.0,2.0,55,0.00,CLR,,0.00,WeatherDisplay:10.37,2013-09-09 20:52:00,
2013-09-10 06:57:00,67.3,50.6,29.65,NNW,332,0.0,2.0,55,0.00,CLR,,0.00,WeatherDisplay:10.37,2013-09-09 20:57:00,
2013-09-10 07:02:00,67.3,50.6,29.65,NW,325,0.0,0.0,55,0.00,CLR,,0.00,WeatherDisplay:10.37,2013-09-09 21:02:00,
2013-09-10 07:07:00,67.4,50.7,29.65,NW,318,0.0,2.0,55,0.00,CLR,,0.00,WeatherDisplay:10.37,2013-09-09 21:07:00,
2013-09-10 07:12:00,67.6,50.9,29.65,NW,313,0.0,2.0,55,0.00,CLR,,0.00,WeatherDisplay:10.37,2013-09-09 21:12:00,
2013-09-10 07:17:00,67.6,50.4,29.66,NW,324,1.0,3.0,54,0.00,CLR,,0.00,WeatherDisplay:10.37,2013-09-09 21:17:00,
2013-09-10 07:22:00,67.8,50.1,29.65,NW,319,1.0,3.0,53,0.00,CLR,,0.00,WeatherDisplay:10.37,2013-09-09 21:22:00,
2013-09-10 07:27:00,68.2,50.4,29.66,NW,321,1.0,4.0,53,0.00,CLR,,0.00,WeatherDisplay:10.37,2013-09-09 21:27:00,
2013-09-10 07:32:00,68.5,50.7,29.66,NNW,327,1.0,3.0,53,0.00,CLR,,0.00,WeatherDisplay:10.37,2013-09-09 21:32:00,
2013-09-10 07:37:00,68.7,50.9,29.66,NNW,329,0.0,4.0,53,0.00,CLR,,0.00,WeatherDisplay:10.37,2013-09-09 21:37:00,
2013-09-10 07:42:00,69.1,51.2,29.66,NNW,344,1.0,3.0,53,0.00,CLR,,0.00,WeatherDisplay:10.37,2013-09-09 21:42:00,
2013-09-10 07:47:00,69.4,51.0,29.66,NNW,336,3.0,6.0,52,0.00,CLR,,0.00,WeatherDisplay:10.37,2013-09-09 21:47:00,
2013-09-10 07:52:00,69.7,50.8,29.66,NNW,343,2.0,6.0,51,0.00,CLR,,0.00,WeatherDisplay:10.37,2013-09-09 21:52:00,
2013-09-10 07:57:00,70.1,51.2,29.66,North,351,2.0,5.0,51,0.00,CLR,,0.00,WeatherDisplay:10.37,2013-09-09 21:57:00,
2013-09-10 08:02:00,70.5,51.0,29.66,NNW,337,1.0,5.0,50,0.00,CLR,,0.00,WeatherDisplay:10.37,2013-09-09 22:02:00,
2013-09-10 08:07:00,70.8,51.2,29.66,NW,324,1.0,5.0,50,0.00,CLR,,0.00,WeatherDisplay:10.37,2013-09-09 22:07:00,
2013-09-10 08:12:00,71.2,51.1,29.66,NNW,343,3.0,6.0,49,0.00,CLR,,0.00,WeatherDisplay:10.37,2013-09-09 22:12:00,
2013-09-10 08:17:00,71.4,51.3,29.67,NNW,345,2.0,5.0,49,0.00,CLR,,0.00,WeatherDisplay:10.37,2013-09-09 22:17:00,
2013-09-10 08:22:00,71.8,51.6,29.66,NNW,338,2.0,4.0,49,0.00,CLR,,0.00,WeatherDisplay:10.37,2013-09-09 22:22:00,
2013-09-10 08:27:00,72.3,51.5,29.66,NNW,345,2.0,6.0,48,0.00,CLR,,0.00,WeatherDisplay:10.37,2013-09-09 22:27:00,
2013-09-10 08:32:00,72.8,51.4,29.66,NNW,344,5.0,6.0,47,0.00,CLR,,0.00,WeatherDisplay:10.37,2013-09-09 22:32:00,
2013-09-10 08:37:00,73.3,51.3,29.66,NW,326,3.0,8.0,46,0.00,CLR,,0.00,WeatherDisplay:10.37,2013-09-09 22:37:00,
2013-09-10 08:42:00,74.0,51.3,29.66,NW,310,2.0,6.0,45,0.00,CLR,,0.00,WeatherDisplay:10.37,2013-09-09 22:42:00,
2013-09-10 08:47:00,74.5,51.7,29.65,NW,323,1.0,6.0,45,0.00,CLR,,0.00,WeatherDisplay:10.37,2013-09-09 22:47:00,
2013-09-10 08:52:00,75.0,51.6,29.66,NNW,342,3.0,12.0,44,0.00,CLR,,0.00,WeatherDisplay:10.37,2013-09-09 22:52:00,
2013-09-10 08:57:00,75.4,51.3,29.65,NNW,329,2.0,12.0,43,0.00,CLR,,0.00,WeatherDisplay:10.37,2013-09-09 22:57:00,
2013-09-10 09:02:00,75.9,51.8,29.65,NW,318,3.0,11.0,43,0.00,CLR,,0.00,WeatherDisplay:10.37,2013-09-09 23:02:00,
2013-09-10 09:07:00,76.3,51.5,29.65,NW,316,5.0,8.0,42,0.00,CLR,,0.00,WeatherDisplay:10.37,2013-09-09 23:07:00,
2013-09-10 09:12:00,76.8,51.3,29.65,NW,313,3.0,8.0,41,0.00,CLR,,0.00,WeatherDisplay:10.37,2013-09-09 23:12:00,
2013-09-10 09:17:00,77.2,51.7,29.65,NW,305,6.0,13.0,41,0.00,CLR,,0.00,WeatherDisplay:10.37,2013-09-09 23:17:00,
2013-09-10 09:22:00,77.5,51.3,29.64,NNW,334,3.0,8.0,40,0.00,CLR,,0.00,WeatherDisplay:10.37,2013-09-09 23:22:00,
2013-09-10 09:27:00,77.8,50.8,29.65,NNW,334,6.0,13.0,39,0.00,CLR,,0.00,WeatherDisplay:10.37,2013-09-09 23:27:00,
2013-09-10 09:32:00,78.2,51.2,29.64,NW,319,6.0,10.0,39,0.00,CLR,,0.00,WeatherDisplay:10.37,2013-09-09 23:32:00,
2013-09-10 09:37:00,78.6,50.9,29.64,WNW,298,3.0,8.0,38,0.00,CLR,,0.00,WeatherDisplay:10.37,2013-09-09 23:37:00,
2013-09-10 09:42:00,78.8,51.0,29.63,NNW,328,6.0,9.0,38,0.00,CLR,,0.00,WeatherDisplay:10.37,2013-09-09 23:42:00,
2013-09-10 09:47:00,79.0,51.3,29.63,NNW,346,2.0,14.0,38,0.00,CLR,,0.00,WeatherDisplay:10.37,2013-09-09 23:47:00,
2013-09-10 09:52:00,79.3,51.5,29.63,NNW,339,2.0,8.0,38,0.00,CLR,,0.00,WeatherDisplay:10.37,2013-09-09 23:52:00,
2013-09-10 09:57:00,79.9,52.0,29.63,North,349,5.0,8.0,38,0.00,CLR,,0.00,WeatherDisplay:10.37,2013-09-09 23:57:00,
2013-09-10 10:02:00,80.2,51.6,29.62,North,0,5.0,13.0,37,0.00,CLR,,0.00,WeatherDisplay:10.37,2013-09-10 00:02:00,
2013-09-10 10:07:00,80.6,51.9,29.62,North,349,6.0,17.0,37,0.00,CLR,,0.00,WeatherDisplay:10.37,2013-09-10 00:07:00,
2013-09-10 10:12:00,80.8,51.3,29.62,NNW,345,6.0,10.0,36,0.00,CLR,,0.00,WeatherDisplay:10.37,2013-09-10 00:12:00,
2013-09-10 10:17:00,81.0,51.6,29.61,NNW,348,5.0,12.0,36,0.00,CLR,,0.00,WeatherDisplay:10.37,2013-09-10 00:17:00,
2013-09-10 10:22:00,81.3,51.8,29.62,North,352,9.0,13.0,36,0.00,CLR,,0.00,WeatherDisplay:10.37,2013-09-10 00:22:00,
2013-09-10 10:27:00,81.6,52.0,29.62,North,356,5.0,13.0,36,0.00,CLR,,0.00,WeatherDisplay:10.37,2013-09-10 00:27:00,
2013-09-10 10:32:00,81.7,52.1,29.61,North,349,3.0,13.0,36,0.00,CLR,,0.00,WeatherDisplay:10.37,2013-09-10 00:32:00,
2013-09-10 10:37:00,82.0,52.4,29.61,North,351,5.0,8.0,36,0.00,CLR,,0.00,WeatherDisplay:10.37,2013-09-10 00:37:00,
2013-09-10 10:42:00,82.5,52.8,29.61,North,4,3.0,11.0,36,0.00,CLR,,0.00,WeatherDisplay:10.37,2013-09-10 00:42:00,
2013-09-10 10:47:00,82.8,53.1,29.60,North,3,3.0,10.0,36,0.00,CLR,,0.00,WeatherDisplay:10.37,2013-09-10 00:47:00,
2013-09-10 10:52:00,83.1,53.4,29.60,North,355,2.0,7.0,36,0.00,CLR,,0.00,WeatherDisplay:10.37,2013-09-10 00:52:00,
2013-09-10 10:57:00,83.7,54.0,29.60,North,351,3.0,7.0,36,0.00,CLR,,0.00,WeatherDisplay:10.37,2013-09-10 00:57:00,
2013-09-10 11:07:00,84.4,53.7,29.59,North,349,3.0,6.0,35,0.00,CLR,,0.00,WeatherDisplay:10.37,2013-09-10 01:07:00,
2013-09-10 11:12:00,84.7,54.1,29.59,NNW,339,3.0,6.0,35,0.00,CLR,,0.00,WeatherDisplay:10.37,2013-09-10 01:12:00,
2013-09-10 11:17:00,85.0,53.5,29.59,NNW,333,6.0,13.0,34,0.00,CLR,,0.00,WeatherDisplay:10.37,2013-09-10 01:17:00,
2013-09-10 11:22:00,85.3,52.9,29.59,NW,324,6.0,11.0,33,0.00,CLR,,0.00,WeatherDisplay:10.37,2013-09-10 01:22:00,
2013-09-10 11:27:00,85.3,52.1,29.58,NNW,329,3.0,10.0,32,0.00,CLR,,0.00,WeatherDisplay:10.37,2013-09-10 01:27:00,
2013-09-10 11:32:00,85.3,52.1,29.58,North,350,9.0,12.0,32,0.00,CLR,,0.00,WeatherDisplay:10.37,2013-09-10 01:32:00,
2013-09-10 11:37:00,85.3,52.9,29.57,North,358,6.0,12.0,33,0.00,CLR,,0.00,WeatherDisplay:10.37,2013-09-10 01:37:00,
2013-09-10 11:42:00,85.3,52.1,29.57,NNW,343,6.0,12.0,32,0.00,CLR,,0.00,WeatherDisplay:10.37,2013-09-10 01:42:00,
2013-09-10 11:47:00,85.6,52.3,29.56,NNW,340,6.0,10.0,32,0.00,CLR,,0.00,WeatherDisplay:10.37,2013-09-10 01:47:00,
2013-09-10 11:52:00,85.6,52.4,29.56,North,352,6.0,15.0,32,0.00,CLR,,0.00,WeatherDisplay:10.37,2013-09-10 01:52:00,
2013-09-10 11:57:00,85.8,52.5,29.55,North,349,5.0,9.0,32,0.00,CLR,,0.00,WeatherDisplay:10.37,2013-09-10 01:57:00,
2013-09-10 12:02:00,86.3,53.0,29.56,North,10,7.0,14.0,32,0.00,CLR,,0.00,WeatherDisplay:10.37,2013-09-10 02:02:00,
2013-09-10 12:07:00,86.4,53.0,29.55,North,2,5.0,12.0,32,0.00,CLR,,0.00,WeatherDisplay:10.37,2013-09-10 02:07:00,
2013-09-10 12:12:00,86.4,52.2,29.55,North,4,6.0,17.0,31,0.00,CLR,,0.00,WeatherDisplay:10.37,2013-09-10 02:12:00,
2013-09-10 12:17:00,86.5,51.4,29.54,NNW,340,6.0,17.0,30,0.00,CLR,,0.00,WeatherDisplay:10.37,2013-09-10 02:17:00,
2013-09-10 12:22:00,86.6,51.5,29.53,NW,314,3.0,10.0,30,0.00,CLR,,0.00,WeatherDisplay:10.37,2013-09-10 02:22:00,
2013-09-10 12:27:00,86.9,51.7,29.53,NW,310,6.0,9.0,30,0.00,CLR,,0.00,WeatherDisplay:10.37,2013-09-10 02:27:00,
2013-09-10 12:32:00,87.1,51.9,29.53,North,352,6.0,13.0,30,0.00,CLR,,0.00,WeatherDisplay:10.37,2013-09-10 02:32:00,
2013-09-10 12:37:00,87.4,53.1,29.53,North,1,5.0,14.0,31,0.00,CLR,,0.00,WeatherDisplay:10.37,2013-09-10 02:37:00,
2013-09-10 12:42:00,87.6,53.2,29.52,North,359,5.0,11.0,31,0.00,CLR,,0.00,WeatherDisplay:10.37,2013-09-10 02:42:00,
2013-09-10 12:47:00,87.6,52.4,29.52,North,4,5.0,10.0,30,0.00,CLR,,0.00,WeatherDisplay:10.37,2013-09-10 02:47:00,
2013-09-10 12:52:00,87.6,53.2,29.51,NW,314,3.0,9.0,31,0.00,CLR,,0.00,WeatherDisplay:10.37,2013-09-10 02:52:00,
2013-09-10 12:57:00,88.0,52.7,29.51,WNW,299,6.0,13.0,30,0.00,CLR,,0.00,WeatherDisplay:10.37,2013-09-10 02:57:00,
2013-09-10 13:02:00,88.0,51.8,29.51,NW,304,8.0,13.0,29,0.00,CLR,,0.00,WeatherDisplay:10.37,2013-09-10 03:02:00,
2013-09-10 13:07:00,88.0,51.7,29.51,NW,319,6.0,11.0,29,0.00,CLR,,0.00,WeatherDisplay:10.37,2013-09-10 03:07:00,
2013-09-10 13:12:00,88.2,51.9,29.50,NNW,336,7.0,12.0,29,0.00,CLR,,0.00,WeatherDisplay:10.37,2013-09-10 03:12:00,
2013-09-10 13:17:00,88.3,52.0,29.50,NNW,331,6.0,12.0,29,0.00,CLR,,0.00,WeatherDisplay:10.37,2013-09-10 03:17:00,
2013-09-10 13:22:00,88.0,51.8,29.50,NNW,328,6.0,14.0,29,0.00,CLR,,0.00,WeatherDisplay:10.37,2013-09-10 03:22:00,
2013-09-10 13:27:00,88.2,51.9,29.50,NNW,327,5.0,8.0,29,0.00,CLR,,0.00,WeatherDisplay:10.37,2013-09-10 03:27:00,
2013-09-10 13:32:00,88.3,52.0,29.49,NNW,339,9.0,13.0,29,0.00,CLR,,0.00,WeatherDisplay:10.37,2013-09-10 03:32:00,
2013-09-10 13:37:00,88.3,52.0,29.49,NNW,348,6.0,9.0,29,0.00,CLR,,0.00,WeatherDisplay:10.37,2013-09-10 03:37:00,
2013-09-10 13:42:00,88.3,52.0,29.48,NNW,339,6.0,14.0,29,0.00,CLR,,0.00,WeatherDisplay:10.37,2013-09-10 03:42:00,
2013-09-10 13:47:00,88.4,52.1,29.48,North,351,6.0,12.0,29,0.00,CLR,,0.00,WeatherDisplay:10.37,2013-09-10 03:47:00,
2013-09-10 13:52:00,88.5,51.3,29.48,NNW,344,7.0,13.0,28,0.00,CLR,,0.00,WeatherDisplay:10.37,2013-09-10 03:52:00,
2013-09-10 13:57:00,88.4,51.1,29.48,NNW,340,6.0,13.0,28,0.00,CLR,,0.00,WeatherDisplay:10.37,2013-09-10 03:57:00,
2013-09-10 14:02:00,88.3,51.1,29.48,NNW,340,6.0,15.0,28,0.00,CLR,,0.00,WeatherDisplay:10.37,2013-09-10 04:02:00,
2013-09-10 14:07:00,88.3,51.1,29.47,NW,322,3.0,12.0,28,0.00,CLR,,0.00,WeatherDisplay:10.37,2013-09-10 04:07:00,
2013-09-10 14:12:00,88.2,50.9,29.47,NW,322,5.0,12.0,28,0.00,CLR,,0.00,WeatherDisplay:10.37,2013-09-10 04:12:00,
2013-09-10 14:17:00,88.2,50.9,29.47,NNW,342,7.0,12.0,28,0.00,CLR,,0.00,WeatherDisplay:10.37,2013-09-10 04:17:00,
2013-09-10 14:22:00,88.3,51.1,29.47,North,355,5.0,13.0,28,0.00,CLR,,0.00,WeatherDisplay:10.37,2013-09-10 04:22:00,
2013-09-10 14:27:00,88.3,51.1,29.47,North,6,5.0,12.0,28,0.00,CLR,,0.00,WeatherDisplay:10.37,2013-09-10 04:27:00,
2013-09-10 14:32:00,88.4,51.2,29.47,North,359,5.0,12.0,28,0.00,CLR,,0.00,WeatherDisplay:10.37,2013-09-10 04:32:00,
2013-09-10 14:37:00,88.3,51.1,29.47,North,354,5.0,10.0,28,0.00,CLR,,0.00,WeatherDisplay:10.37,2013-09-10 04:37:00,
2013-09-10 14:42:00,88.3,51.1,29.47,North,5,7.0,9.0,28,0.00,CLR,,0.00,WeatherDisplay:10.37,2013-09-10 04:42:00,
2013-09-10 14:47:00,88.3,51.1,29.46,North,2,6.0,11.0,28,0.00,CLR,,0.00,WeatherDisplay:10.37,2013-09-10 04:47:00,
2013-09-10 14:52:00,88.3,51.1,29.46,NNW,336,5.0,10.0,28,0.00,CLR,,0.00,WeatherDisplay:10.37,2013-09-10 04:52:00,
2013-09-10 14:57:00,88.3,51.1,29.46,NNW,342,5.0,9.0,28,0.00,CLR,,0.00,WeatherDisplay:10.37,2013-09-10 04:57:00,
2013-09-10 15:02:00,88.1,50.9,29.46,NNW,334,5.0,9.0,28,0.00,CLR,,0.00,WeatherDisplay:10.37,2013-09-10 05:02:00,
2013-09-10 15:07:00,87.7,50.5,29.46,NW,315,3.0,9.0,28,0.00,CLR,,0.00,WeatherDisplay:10.37,2013-09-10 05:07:00,
2013-09-10 15:12:00,87.6,50.5,29.46,NW,321,3.0,8.0,28,0.00,CLR,,0.00,WeatherDisplay:10.37,2013-09-10 05:12:00,
2013-09-10 15:17:00,87.6,50.5,29.46,NW,305,5.0,12.0,28,0.00,CLR,,0.00,WeatherDisplay:10.37,2013-09-10 05:17:00,
2013-09-10 15:22:00,87.4,50.3,29.46,NW,319,5.0,12.0,28,0.00,CLR,,0.00,WeatherDisplay:10.37,2013-09-10 05:22:00,
2013-09-10 15:27:00,87.6,50.5,29.45,North,351,5.0,10.0,28,0.00,CLR,,0.00,WeatherDisplay:10.37,2013-09-10 05:27:00,
2013-09-10 15:32:00,87.4,50.3,29.45,NNW,348,6.0,8.0,28,0.00,CLR,,0.00,WeatherDisplay:10.37,2013-09-10 05:32:00,
2013-09-10 15:37:00,87.1,50.0,29.45,NNW,341,1.0,8.0,28,0.00,CLR,,0.00,WeatherDisplay:10.37,2013-09-10 05:37:00,
2013-09-10 15:42:00,87.1,50.0,29.45,NNW,339,7.0,20.0,28,0.00,CLR,,0.00,WeatherDisplay:10.37,2013-09-10 05:42:00,
2013-09-10 15:47:00,87.0,49.9,29.45,North,356,3.0,16.0,28,0.00,CLR,,0.00,WeatherDisplay:10.37,2013-09-10 05:47:00,
2013-09-10 15:52:00,87.0,50.0,29.45,North,352,3.0,10.0,28,0.00,CLR,,0.00,WeatherDisplay:10.37,2013-09-10 05:52:00,
2013-09-10 15:57:00,87.0,50.0,29.45,NNW,348,5.0,21.0,28,0.00,CLR,,0.00,WeatherDisplay:10.37,2013-09-10 05:57:00,
2013-09-10 16:02:00,86.9,49.9,29.45,NNW,348,5.0,9.0,28,0.00,CLR,,0.00,WeatherDisplay:10.37,2013-09-10 06:02:00,
2013-09-10 16:07:00,86.8,49.8,29.45,North,352,5.0,9.0,28,0.00,CLR,,0.00,WeatherDisplay:10.37,2013-09-10 06:07:00,
2013-09-10 16:12:00,86.7,50.7,29.44,North,357,3.0,7.0,29,0.00,CLR,,0.00,WeatherDisplay:10.37,2013-09-10 06:12:00,
2013-09-10 16:17:00,86.5,50.5,29.45,North,359,2.0,10.0,29,0.00,CLR,,0.00,WeatherDisplay:10.37,2013-09-10 06:17:00,
2013-09-10 16:22:00,86.2,50.2,29.45,NNE,14,6.0,15.0,29,0.00,CLR,,0.00,WeatherDisplay:10.37,2013-09-10 06:22:00,
2013-09-10 16:27:00,85.8,49.9,29.44,North,8,5.0,6.0,29,0.00,CLR,,0.00,WeatherDisplay:10.37,2013-09-10 06:27:00,
2013-09-10 16:32:00,85.6,49.7,29.44,North,359,3.0,17.0,29,0.00,CLR,,0.00,WeatherDisplay:10.37,2013-09-10 06:32:00,
2013-09-10 16:37:00,85.3,49.4,29.44,North,2,2.0,17.0,29,0.00,CLR,,0.00,WeatherDisplay:10.37,2013-09-10 06:37:00,
2013-09-10 16:42:00,85.1,49.3,29.45,North,11,5.0,8.0,29,0.00,CLR,,0.00,WeatherDisplay:10.37,2013-09-10 06:42:00,
2013-09-10 16:47:00,84.9,49.1,29.45,North,7,3.0,7.0,29,0.00,CLR,,0.00,WeatherDisplay:10.37,2013-09-10 06:47:00,
2013-09-10 16:52:00,84.7,49.9,29.45,North,352,1.0,7.0,30,0.00,CLR,,0.00,WeatherDisplay:10.37,2013-09-10 06:52:00,
2013-09-10 16:57:00,84.6,49.7,29.45,NNW,344,1.0,4.0,30,0.00,CLR,,0.00,WeatherDisplay:10.37,2013-09-10 06:57:00,
2013-09-10 17:02:00,84.4,49.6,29.45,North,6,3.0,7.0,30,0.00,CLR,,0.00,WeatherDisplay:10.37,2013-09-10 07:02:00,
2013-09-10 17:07:00,84.0,49.2,29.45,North,8,2.0,6.0,30,0.00,CLR,,0.00,WeatherDisplay:10.37,2013-09-10 07:07:00,
2013-09-10 17:12:00,83.8,49.1,29.46,North,8,3.0,8.0,30,0.00,CLR,,0.00,WeatherDisplay:10.37,2013-09-10 07:12:00,
2013-09-10 17:17:00,83.8,49.1,29.46,NNW,343,6.0,10.0,30,0.00,CLR,,0.00,WeatherDisplay:10.37,2013-09-10 07:17:00,
2013-09-10 17:22:00,83.5,48.8,29.46,NNW,341,2.0,4.0,30,0.00,CLR,,0.00,WeatherDisplay:10.37,2013-09-10 07:22:00,
2013-09-10 17:27:00,83.3,48.6,29.47,North,8,1.0,5.0,30,0.00,CLR,,0.00,WeatherDisplay:10.37,2013-09-10 07:27:00,
2013-09-10 17:32:00,83.1,48.5,29.46,North,359,2.0,7.0,30,0.00,CLR,,0.00,WeatherDisplay:10.37,2013-09-10 07:32:00,
2013-09-10 17:37:00,82.9,49.2,29.46,NNW,343,2.0,6.0,31,0.00,CLR,,0.00,WeatherDisplay:10.37,2013-09-10 07:37:00,
2013-09-10 17:42:00,82.8,49.0,29.47,NNW,339,2.0,5.0,31,0.00,CLR,,0.00,WeatherDisplay:10.37,2013-09-10 07:42:00,
2013-09-10 17:47:00,82.6,48.9,29.47,NNW,336,0.0,4.0,31,0.00,CLR,,0.00,WeatherDisplay:10.37,2013-09-10 07:47:00,
2013-09-10 17:52:00,82.2,48.6,29.47,NNW,333,0.0,5.0,31,0.00,CLR,,0.00,WeatherDisplay:10.37,2013-09-10 07:52:00,
2013-09-10 17:57:00,82.0,48.4,29.46,NNW,336,0.0,2.0,31,0.00,CLR,,0.00,WeatherDisplay:10.37,2013-09-10 07:57:00,
2013-09-10 18:02:00,81.7,48.1,29.47,NNW,337,0.0,4.0,31,0.00,CLR,,0.00,WeatherDisplay:10.37,2013-09-10 08:02:00,
2013-09-10 18:07:00,81.3,49.5,29.47,NW,317,0.0,1.0,33,0.00,CLR,,0.00,WeatherDisplay:10.37,2013-09-10 08:07:00,
2013-09-10 18:12:00,81.1,48.5,29.47,WNW,293,0.0,0.0,32,0.00,CLR,,0.00,WeatherDisplay:10.37,2013-09-10 08:12:00,
2013-09-10 18:17:00,80.9,48.3,29.47,West,274,0.0,0.0,32,0.00,CLR,,0.00,WeatherDisplay:10.37,2013-09-10 08:17:00,
2013-09-10 18:22:00,80.4,48.7,29.47,West,268,0.0,0.0,33,0.00,CLR,,0.00,WeatherDisplay:10.37,2013-09-10 08:22:00,
2013-09-10 18:27:00,80.2,49.3,29.47,NW,307,0.0,0.0,34,0.00,CLR,,0.00,WeatherDisplay:10.37,2013-09-10 08:27:00,
2013-09-10 18:32:00,79.9,49.0,29.48,NW,325,0.0,0.0,34,0.00,CLR,,0.00,WeatherDisplay:10.37,2013-09-10 08:32:00,
2013-09-10 18:37:00,79.7,48.9,29.48,WNW,297,0.0,0.0,34,0.00,CLR,,0.00,WeatherDisplay:10.37,2013-09-10 08:37:00,
2013-09-10 18:42:00,79.5,48.7,29.48,NW,323,0.0,0.0,34,0.00,CLR,,0.00,WeatherDisplay:10.37,2013-09-10 08:42:00,
2013-09-10 18:47:00,79.3,49.3,29.48,NNW,340,0.0,0.0,35,0.00,CLR,,0.00,WeatherDisplay:10.37,2013-09-10 08:47:00,
2013-09-10 18:52:00,79.2,49.1,29.48,WNW,303,0.0,0.0,35,0.00,CLR,,0.00,WeatherDisplay:10.37,2013-09-10 08:52:00,
2013-09-10 18:57:00,79.0,49.0,29.48,West,273,0.0,0.0,35,0.00,CLR,,0.00,WeatherDisplay:10.37,2013-09-10 08:57:00,
2013-09-10 19:02:00,78.6,48.7,29.48,West,266,0.0,1.0,35,0.00,CLR,,0.00,WeatherDisplay:10.37,2013-09-10 09:02:00,
2013-09-10 19:07:00,78.6,48.7,29.48,West,272,0.0,0.0,35,0.00,CLR,,0.00,WeatherDisplay:10.37,2013-09-10 09:07:00,
2013-09-10 19:12:00,78.2,49.1,29.49,WSW,250,0.0,1.0,36,0.00,CLR,,0.00,WeatherDisplay:10.37,2013-09-10 09:12:00,
2013-09-10 19:17:00,77.9,48.8,29.49,SW,225,0.0,1.0,36,0.00,CLR,,0.00,WeatherDisplay:10.37,2013-09-10 09:17:00,
2013-09-10 19:27:00,77.4,48.3,29.50,WSW,240,0.0,0.0,36,0.00,CLR,,0.00,WeatherDisplay:10.37,2013-09-10 09:27:00,
2013-09-10 19:32:00,77.2,48.2,29.50,West,266,0.0,0.0,36,0.00,CLR,,0.00,WeatherDisplay:10.37,2013-09-10 09:32:00,
2013-09-10 19:37:00,77.2,48.9,29.50,West,259,0.0,0.0,37,0.00,CLR,,0.00,WeatherDisplay:10.37,2013-09-10 09:37:00,
2013-09-10 19:42:00,77.1,48.8,29.50,WSW,239,0.0,0.0,37,0.00,CLR,,0.00,WeatherDisplay:10.37,2013-09-10 09:42:00,
2013-09-10 19:47:00,76.8,48.6,29.50,WSW,243,0.0,0.0,37,0.00,CLR,,0.00,WeatherDisplay:10.37,2013-09-10 09:47:00,
2013-09-10 19:52:00,76.7,48.5,29.51,West,280,0.0,0.0,37,0.00,CLR,,0.00,WeatherDisplay:10.37,2013-09-10 09:52:00,
2013-09-10 19:57:00,76.8,48.6,29.51,NW,311,0.0,2.0,37,0.00,CLR,,0.00,WeatherDisplay:10.37,2013-09-10 09:57:00,
2013-09-10 20:02:00,76.8,48.6,29.51,NW,313,0.0,0.0,37,0.00,CLR,,0.00,WeatherDisplay:10.37,2013-09-10 10:02:00,
2013-09-10 20:07:00,76.6,48.4,29.52,West,268,0.0,0.0,37,0.00,CLR,,0.00,WeatherDisplay:10.37,2013-09-10 10:07:00,
2013-09-10 20:12:00,76.6,48.4,29.52,SW,219,1.0,2.0,37,0.00,CLR,,0.00,WeatherDisplay:10.37,2013-09-10 10:12:00,
2013-09-10 20:17:00,76.4,48.9,29.52,SSW,200,0.0,2.0,38,0.00,CLR,,0.00,WeatherDisplay:10.37,2013-09-10 10:17:00,
2013-09-10 20:22:00,76.1,48.7,29.52,SSW,193,0.0,2.0,38,0.00,CLR,,0.00,WeatherDisplay:10.37,2013-09-10 10:22:00,
2013-09-10 20:27:00,75.9,49.2,29.52,SSW,199,0.0,2.0,39,0.00,CLR,,0.00,WeatherDisplay:10.37,2013-09-10 10:27:00,
2013-09-10 20:32:00,75.6,48.9,29.52,SSW,204,0.0,1.0,39,0.00,CLR,,0.00,WeatherDisplay:10.37,2013-09-10 10:32:00,
2013-09-10 20:37:00,75.4,48.7,29.53,SSW,207,0.0,2.0,39,0.00,CLR,,0.00,WeatherDisplay:10.37,2013-09-10 10:37:00,
2013-09-10 20:42:00,75.0,48.4,29.53,SW,217,0.0,2.0,39,0.00,CLR,,0.00,WeatherDisplay:10.37,2013-09-10 10:42:00,
2013-09-10 20:47:00,74.8,48.2,29.53,SW,233,0.0,2.0,39,0.00,CLR,,0.00,WeatherDisplay:10.37,2013-09-10 10:47:00,
2013-09-10 20:52:00,74.8,47.5,29.54,SW,225,1.0,5.0,38,0.00,CLR,,0.00,WeatherDisplay:10.37,2013-09-10 10:52:00,
2013-09-10 20:57:00,74.9,46.9,29.54,WSW,239,3.0,7.0,37,0.00,CLR,,0.00,WeatherDisplay:10.37,2013-09-10 10:57:00,
2013-09-10 21:02:00,75.1,47.0,29.54,WSW,243,2.0,6.0,37,0.00,CLR,,0.00,WeatherDisplay:10.37,2013-09-10 11:02:00,
2013-09-10 21:07:00,75.4,47.3,29.55,SW,234,0.0,4.0,37,0.00,CLR,,0.00,WeatherDisplay:10.37,2013-09-10 11:07:00,
2013-09-10 21:12:00,75.4,47.3,29.55,WSW,241,0.0,2.0,37,0.00,CLR,,0.00,WeatherDisplay:10.37,2013-09-10 11:12:00,
2013-09-10 21:17:00,75.6,47.5,29.55,SW,236,2.0,5.0,37,0.00,CLR,,0.00,WeatherDisplay:10.37,2013-09-10 11:17:00,
2013-09-10 21:27:00,75.4,47.3,29.55,SW,223,0.0,3.0,37,0.00,CLR,,0.00,WeatherDisplay:10.37,2013-09-10 11:27:00,
2013-09-10 21:32:00,75.4,47.3,29.55,SSW,208,0.0,3.0,37,0.00,CLR,,0.00,WeatherDisplay:10.37,2013-09-10 11:32:00,
2013-09-10 21:37:00,75.1,47.0,29.55,SSW,212,2.0,3.0,37,0.00,CLR,,0.00,WeatherDisplay:10.37,2013-09-10 11:37:00,
2013-09-10 21:42:00,75.0,47.0,29.56,SSW,201,1.0,4.0,37,0.00,CLR,,0.00,WeatherDisplay:10.37,2013-09-10 11:42:00,
2013-09-10 21:47:00,75.0,47.7,29.56,SSW,193,0.0,4.0,38,0.00,CLR,,0.00,WeatherDisplay:10.37,2013-09-10 11:47:00,
2013-09-10 21:52:00,74.9,47.6,29.56,South,182,0.0,3.0,38,0.00,CLR,,0.00,WeatherDisplay:10.37,2013-09-10 11:52:00,
2013-09-10 21:57:00,74.8,47.5,29.57,South,189,2.0,4.0,38,0.00,CLR,,0.00,WeatherDisplay:10.37,2013-09-10 11:57:00,
2013-09-10 22:02:00,74.8,48.2,29.57,SSW,206,1.0,5.0,39,0.00,CLR,,0.00,WeatherDisplay:10.37,2013-09-10 12:02:00,
2013-09-10 22:07:00,74.5,47.9,29.57,SSW,199,0.0,1.0,39,0.00,CLR,,0.00,WeatherDisplay:10.37,2013-09-10 12:07:00,
2013-09-10 22:12:00,74.5,47.9,29.58,SSW,192,0.0,2.0,39,0.00,CLR,,0.00,WeatherDisplay:10.37,2013-09-10 12:12:00,
2013-09-10 22:17:00,74.3,47.7,29.57,SSW,196,2.0,5.0,39,0.00,CLR,,0.00,WeatherDisplay:10.37,2013-09-10 12:17:00,
2013-09-10 22:22:00,74.1,48.2,29.58,SW,218,1.0,3.0,40,0.00,CLR,,0.00,WeatherDisplay:10.37,2013-09-10 12:22:00,
2013-09-10 22:27:00,73.9,48.1,29.58,SSW,210,2.0,5.0,40,0.00,CLR,,0.00,WeatherDisplay:10.37,2013-09-10 12:27:00,
2013-09-10 22:32:00,73.8,47.9,29.58,SSW,193,0.0,4.0,40,0.00,CLR,,0.00,WeatherDisplay:10.37,2013-09-10 12:32:00,
2013-09-10 22:37:00,73.6,47.8,29.58,SSW,198,1.0,5.0,40,0.00,CLR,,0.00,WeatherDisplay:10.37,2013-09-10 12:37:00,
2013-09-10 22:42:00,73.5,47.7,29.58,WSW,244,3.0,10.0,40,0.00,CLR,,0.00,WeatherDisplay:10.37,2013-09-10 12:42:00,
2013-09-10 22:47:00,73.2,47.4,29.58,WSW,255,1.0,5.0,40,0.00,CLR,,0.00,WeatherDisplay:10.37,2013-09-10 12:47:00,
2013-09-10 22:52:00,73.2,47.4,29.59,WSW,245,3.0,11.0,40,0.00,CLR,,0.00,WeatherDisplay:10.37,2013-09-10 12:52:00,
2013-09-10 22:57:00,73.0,47.3,29.59,WSW,250,0.0,9.0,40,0.00,CLR,,0.00,WeatherDisplay:10.37,2013-09-10 12:57:00,
2013-09-10 23:02:00,73.0,46.6,29.59,WSW,254,1.0,4.0,39,0.00,CLR,,0.00,WeatherDisplay:10.37,2013-09-10 13:02:00,
2013-09-10 23:07:00,72.9,46.4,29.59,WSW,241,0.0,2.0,39,0.00,CLR,,0.00,WeatherDisplay:10.37,2013-09-10 13:07:00,
2013-09-10 23:12:00,72.7,46.3,29.60,SW,236,0.0,2.0,39,0.00,CLR,,0.00,WeatherDisplay:10.37,2013-09-10 13:12:00,
2013-09-10 23:17:00,72.5,46.8,29.60,SW,235,1.0,4.0,40,0.00,CLR,,0.00,WeatherDisplay:10.37,2013-09-10 13:17:00,
2013-09-10 23:22:00,72.3,46.6,29.60,WSW,237,1.0,5.0,40,0.00,CLR,,0.00,WeatherDisplay:10.37,2013-09-10 13:22:00,
2013-09-10 23:27:00,72.1,46.5,29.60,SW,234,1.0,2.0,40,0.00,CLR,,0.00,WeatherDisplay:10.37,2013-09-10 13:27:00,
2013-09-10 23:32:00,72.0,46.3,29.60,SW,225,2.0,5.0,40,0.00,CLR,,0.00,WeatherDisplay:10.37,2013-09-10 13:32:00,
2013-09-10 23:37:00,71.8,46.2,29.60,SSW,212,0.0,3.0,40,0.00,CLR,,0.00,WeatherDisplay:10.37,2013-09-10 13:37:00,
2013-09-10 23:42:00,71.4,45.8,29.60,SSW,212,2.0,5.0,40,0.00,CLR,,0.00,WeatherDisplay:10.37,2013-09-10 13:42:00,
2013-09-10 23:47:00,71.4,45.8,29.61,SW,214,1.0,6.0,40,0.00,CLR,,0.00,WeatherDisplay:10.37,2013-09-10 13:47:00,
2013-09-10 23:52:00,71.2,45.7,29.61,SW,219,2.0,6.0,40,0.00,CLR,,0.00,WeatherDisplay:10.37,2013-09-10 13:52:00,
2013-09-10 23:57:00,71.1,45.5,29.61,SW,217,2.0,6.0,40,0.00,CLR,,0.00,WeatherDisplay:10.37,2013-09-10 13:57:00,